GFSFLT2_250_spd_159.txt.gz
Wind_Speed
44 45 41 38 37 38 37 35 33 31 31 33 32 33 29 36 43 48 47 42 36 32 31 32 31 33 31 27 27 26 22 18
48 46 46 47 46 42 42 42 37 36 34 37 31 32 36 33 43 45 48 43 37 34 32 30 33 33 33 30 29 29 26 20
48 44 45 48 50 49 48 47 44 39 38 39 34 34 33 31 41 44 44 44 36 33 35 32 32 32 33 32 28 33 30 23
41 42 40 42 43 42 40 45 42 39 42 38 34 33 31 30 38 42 43 47 41 37 34 32 32 32 32 32 29 31 31 31
41 38 40 42 43 39 36 37 35 33 40 30 29 31 30 27 32 41 43 45 40 37 30 32 33 30 30 29 28 32 32 30
46 46 43 41 40 39 39 35 35 32 34 29 27 31 31 28 35 40 46 48 43 42 35 32 33 30 27 26 25 27 30 21
52 52 52 46 44 42 41 39 34 36 34 31 31 32 34 32 33 39 46 49 51 48 36 34 35 36 36 34 29 32 30 28
59 56 52 52 49 47 45 43 38 38 35 31 34 34 33 34 33 34 43 49 54 53 48 40 34 34 37 35 32 27 31 22
59 59 56 55 54 54 49 45 45 43 40 35 35 36 38 36 35 33 40 50 53 53 49 46 35 45 47 33 30 19 20 19
58 59 56 52 55 57 53 48 47 47 44 41 38 40 40 38 34 39 38 49 50 52 53 47 41 41 49 35 31 31 21 17
64 60 56 57 58 59 60 53 49 47 46 44 38 41 42 42 42 42 41 49 50 52 47 46 42 57 50 60 51 46 26 27
72 66 62 62 63 61 58 56 51 46 47 46 42 43 47 46 43 41 43 47 49 50 43 37 27 25 31 33 38 39 35 40
76 67 64 66 68 67 66 59 53 49 48 48 47 46 46 46 40 40 44 48 53 50 51 42 23 26 31 38 35 39 45 43
63 60 57 65 73 72 66 60 53 51 49 49 48 45 48 45 38 41 48 54 59 61 54 50 34 38 34 32 35 37 38 37
54 51 52 58 66 68 64 57 53 51 52 49 46 48 46 45 38 44 48 58 66 66 62 54 45 36 51 38 38 41 39 37
44 44 45 54 63 66 63 52 51 52 53 49 46 44 45 43 43 43 50 57 69 66 61 52 51 45 47 46 40 39 41 33
44 44 40 51 60 62 58 49 47 51 53 47 43 44 40 40 42 44 48 55 67 71 67 59 51 50 53 52 48 42 43 44
42 40 43 52 58 60 54 45 45 48 44 38 39 36 41 35 37 37 49 56 62 70 71 66 62 53 54 55 53 56 57 55
38 41 44 51 58 58 51 48 47 47 37 33 36 38 37 35 33 28 38 52 63 67 70 68 66 61 51 56 53 51 52 53

GFSFLT2_250_spd_162.txt.gz
Wind_Speed
42 42 38 39 40 39 35 33 33 33 34 38 33 28 27 27 34 33 39 43 42 39 36 38 41 40 33 31 32 33 31 26
50 48 47 47 45 43 41 39 36 35 36 44 37 33 35 29 30 36 35 38 42 42 43 40 36 41 41 39 37 36 34 33
55 55 54 50 49 47 45 40 41 42 43 43 40 37 39 36 34 35 36 38 43 42 43 43 33 37 38 39 39 36 35 34
51 50 48 48 45 46 46 42 41 41 49 45 46 44 43 40 36 35 33 35 42 43 42 43 34 38 34 37 39 39 38 33
52 50 45 43 45 43 41 40 39 37 46 40 42 42 41 39 35 36 32 33 41 42 40 39 34 34 35 33 34 38 38 32
53 54 49 46 44 43 43 41 39 37 42 39 38 39 35 34 34 34 35 33 38 42 40 40 37 36 34 34 32 35 34 28
52 56 55 53 50 45 43 42 41 38 40 40 37 38 38 37 37 38 35 34 37 41 41 42 37 34 32 30 30 31 30 30
50 57 59 58 54 48 46 44 44 41 36 42 40 41 39 40 41 41 35 33 33 42 43 45 42 37 32 30 30 30 34 34
54 57 59 56 58 58 55 49 44 42 41 41 43 42 40 42 42 42 39 36 37 41 47 47 44 42 34 34 32 36 38 33
59 60 56 55 58 61 58 52 46 45 45 43 44 44 43 41 42 41 39 37 36 38 47 48 48 44 39 33 33 34 27 31
68 63 60 59 59 61 60 59 54 47 46 45 44 44 44 42 43 43 44 42 38 34 40 47 47 46 43 38 39 40 38 37
73 68 64 65 67 65 61 59 57 52 51 48 44 41 47 43 45 46 45 46 37 33 39 44 46 44 40 33 30 40 41 43
71 68 66 69 71 68 67 58 59 57 51 50 48 46 46 47 47 49 51 45 42 41 39 41 43 42 35 26 39 42 44 50
62 61 63 71 74 73 71 71 66 63 57 51 49 49 50 52 49 51 51 44 43 45 40 42 42 42 39 48 51 50 48 57
60 61 62 65 66 68 74 76 72 68 66 55 53 52 55 54 51 52 47 46 45 46 43 41 46 51 55 52 61 46 41 38
53 55 57 58 59 61 65 72 76 72 67 59 56 56 57 56 52 51 50 48 45 44 46 42 52 49 51 52 52 45 46 43
42 48 46 48 49 52 59 66 70 64 60 58 58 58 57 56 53 50 47 48 46 44 45 47 57 57 54 45 50 51 49 48
36 36 38 45 45 47 50 55 55 51 55 59 57 57 56 53 50 47 48 49 48 49 49 52 60 65 61 60 57 53 48 46
35 35 39 40 42 44 43 45 46 47 55 59 55 55 49 46 43 45 47 46 46 51 55 54 58 71 69 69 58 56 51 55

GFSFLT2_250_spd_165.txt.gz
Wind_Speed
42 41 39 39 38 36 33 33 33 35 37 38 33 30 29 28 24 24 30 36 42 40 37 34 37 38 37 32 30 27 28 28
49 50 49 46 45 43 40 38 36 37 41 43 36 34 35 33 31 28 28 31 37 42 46 42 37 35 35 36 33 30 29 30
50 55 55 53 53 52 49 46 44 43 47 43 43 39 39 36 37 36 31 31 33 39 41 47 47 41 36 34 33 36 37 35
55 56 54 52 53 55 53 51 48 46 52 45 46 43 45 42 41 43 38 35 35 37 42 42 44 45 43 39 37 35 38 40
56 56 55 54 54 51 50 49 47 46 49 43 44 43 46 46 44 47 45 41 38 38 41 42 42 43 43 42 36 34 37 38
50 50 45 43 50 49 45 44 47 43 47 42 41 41 42 45 44 45 44 42 38 38 40 42 41 40 40 39 35 33 35 40
48 53 48 43 41 46 44 44 43 43 39 46 41 39 39 41 42 43 43 40 40 39 39 38 41 40 39 38 36 37 36 37
50 51 51 47 44 43 47 49 45 45 41 42 41 40 38 38 40 42 42 41 40 39 38 35 40 40 40 38 35 36 35 35
53 54 52 49 52 51 48 51 54 50 47 44 41 40 40 36 40 42 43 42 42 39 38 35 39 41 41 39 36 33 33 34
58 56 53 52 53 56 54 53 53 53 52 48 43 40 42 39 39 42 43 42 41 39 37 34 34 41 42 41 37 31 28 37
67 64 59 56 60 60 61 57 55 52 54 53 48 44 43 42 40 41 43 42 42 40 36 33 30 39 44 46 43 34 35 44
72 70 67 64 68 64 63 60 59 58 54 55 53 49 48 45 43 41 42 43 44 41 33 34 30 35 44 46 40 34 33 32
77 76 71 71 69 72 67 63 65 63 59 56 54 53 51 47 47 44 44 44 46 40 38 36 32 35 40 48 43 36 28 28
75 71 66 70 72 72 65 67 68 67 65 61 55 52 55 53 53 50 47 50 47 43 41 40 35 34 38 48 46 39 38 30
65 65 63 64 65 67 63 64 65 70 70 67 62 54 55 56 57 57 50 54 50 47 44 40 37 33 36 48 51 46 41 44
60 59 58 54 55 58 59 59 63 70 72 72 66 59 55 54 58 60 54 52 52 51 44 41 39 34 39 48 52 51 42 45
49 52 49 48 49 53 56 58 62 67 75 77 71 66 61 56 56 58 55 53 50 51 44 42 41 37 42 49 51 54 48 54
45 44 37 43 43 47 52 55 57 63 71 75 75 69 65 61 59 59 56 52 47 51 46 44 44 42 45 56 53 53 49 57
41 32 33 35 36 37 40 45 54 61 64 67 68 70 69 66 62 59 54 50 47 49 47 45 45 43 45 57 60 58 57 56

GFSFLT2_250_spd_168.txt.gz
Wind_Speed
36 36 34 33 34 33 33 33 31 33 34 32 28 28 31 30 27 25 24 31 38 40 38 34 34 33 33 34 33 27 23 23
40 42 43 42 43 43 42 41 39 40 45 40 35 32 32 34 33 33 30 29 32 38 43 41 39 37 38 35 39 35 27 26
45 46 45 44 45 46 46 47 47 47 53 45 42 36 34 37 37 38 36 35 33 34 38 45 46 43 40 40 42 40 35 29
48 50 52 50 51 51 51 49 46 47 55 49 46 44 41 39 40 41 41 40 40 37 36 37 40 46 50 45 40 36 38 37
52 51 48 46 50 51 52 51 47 49 54 44 45 45 44 42 40 42 43 43 44 42 40 38 40 41 45 50 48 45 39 36
53 55 49 47 46 45 43 42 45 46 51 47 43 41 41 41 39 40 45 44 45 45 45 45 44 44 42 45 50 50 47 41
51 53 52 49 47 44 43 42 41 42 45 48 43 42 42 42 40 40 42 39 38 41 45 44 43 44 42 44 46 50 48 43
50 53 53 51 50 49 45 45 42 43 44 49 45 42 40 42 41 40 39 37 35 34 37 38 38 42 41 42 43 47 47 43
54 53 52 51 54 54 49 48 46 44 47 52 49 47 44 41 40 40 38 36 34 32 33 35 33 38 42 40 41 45 45 42
60 58 50 52 55 54 56 51 49 47 46 52 54 53 50 46 42 40 39 38 34 31 31 32 32 34 38 37 40 43 43 41
66 62 58 56 57 55 58 54 53 49 49 48 54 61 58 52 48 43 42 41 37 32 30 30 33 35 35 35 41 42 44 40
68 66 61 64 62 59 59 57 63 57 53 52 52 56 63 59 54 49 46 43 39 36 33 32 33 35 36 34 39 42 44 39
71 68 66 69 65 64 66 65 62 62 61 58 58 57 58 61 60 55 51 48 43 40 39 33 33 36 36 35 35 42 45 43
72 70 68 69 68 66 66 69 67 66 67 64 63 63 60 60 61 56 53 52 48 45 41 36 36 35 37 34 32 40 47 46
71 70 68 70 70 69 70 70 71 71 71 70 68 66 64 61 61 59 56 55 52 51 44 40 39 37 39 35 33 38 47 49
66 66 66 61 62 60 63 63 66 68 71 72 73 72 68 65 62 61 59 57 54 52 45 42 41 38 38 39 37 39 49 52
50 54 53 50 48 50 54 57 61 62 65 70 75 76 74 70 65 59 59 60 56 51 44 39 41 38 38 41 39 40 51 59
49 51 49 49 46 46 47 51 55 57 60 66 70 72 75 72 68 62 57 59 55 50 44 40 39 40 39 41 41 43 49 49
48 46 39 38 34 38 41 43 49 53 57 60 66 70 73 73 69 64 59 60 56 48 43 39 40 41 41 43 44 45 43 42

GFSFLT2_250_spd_171.txt.gz
Wind_Speed
33 34 34 33 33 32 30 31 31 32 31 32 27 25 25 26 26 26 25 24 29 36 34 35 38 35 36 34 34 32 30 27
36 38 37 37 39 40 38 38 39 42 42 42 35 32 31 30 27 28 32 31 30 30 36 40 39 38 39 36 36 35 37 34
41 43 41 41 40 41 41 41 44 47 49 48 44 41 40 37 34 33 33 35 36 36 35 36 43 43 41 39 38 37 40 39
45 46 46 45 44 45 45 47 47 48 51 53 47 44 45 46 43 40 38 35 37 40 40 39 37 40 43 46 42 40 41 42
45 46 46 47 47 50 49 49 48 49 54 56 50 49 49 47 44 43 43 41 39 39 42 44 43 41 41 46 48 47 44 44
41 45 41 40 44 49 50 50 50 48 49 53 50 51 51 50 45 43 44 44 44 43 44 45 47 45 43 42 43 49 50 48
42 43 46 41 43 45 48 50 49 48 48 50 49 47 50 48 48 43 42 43 44 44 45 45 46 46 46 46 45 44 47 50
48 49 50 48 47 48 46 46 49 50 49 50 51 49 45 47 47 43 42 43 43 42 43 42 43 44 45 46 46 46 47 47
52 56 54 47 56 52 51 49 47 49 50 52 53 51 47 48 46 44 44 42 42 40 40 40 40 39 38 39 42 43 44 45
61 62 54 54 58 57 55 52 50 50 53 54 56 54 46 47 50 49 46 44 43 40 40 39 40 38 36 36 38 40 40 40
68 67 60 60 63 61 59 56 59 55 52 50 57 52 58 49 48 52 52 49 45 41 41 39 39 38 35 32 34 38 40 38
74 74 68 69 71 68 60 58 62 64 55 54 54 57 64 50 51 50 54 53 49 43 42 41 38 39 37 34 33 35 38 37
80 80 73 77 77 75 66 62 66 63 61 58 62 60 58 54 56 53 53 57 54 49 44 39 39 39 38 36 36 36 37 37
87 87 80 84 82 79 72 65 66 67 67 63 63 63 60 58 58 58 55 54 55 53 50 44 39 39 38 39 39 39 38 37
91 91 89 82 83 80 72 68 69 69 67 68 68 67 66 64 62 60 60 55 53 53 54 50 44 40 41 40 39 40 39 38
88 83 83 77 77 72 72 67 68 70 72 72 74 72 75 72 69 63 61 59 54 53 54 52 47 41 40 42 39 42 40 41
68 64 67 60 59 61 64 64 66 75 77 76 76 76 76 77 74 68 63 59 58 56 54 53 50 43 40 41 41 42 43 42
59 59 58 54 50 52 55 60 70 68 71 73 77 78 78 78 76 71 68 61 60 58 54 53 52 45 40 40 41 40 44 45
50 48 45 47 50 45 44 47 50 54 58 62 66 71 73 75 73 71 68 65 61 59 56 53 51 46 40 39 40 42 42 47